Regional Weather Roundup
Issued by NWS

Home | Current Version | Previous Version | Text Only | Print | Product List | Glossary Off
Versions: 1 2 3 4 5 6 7 8 9 10 11 12 13 14 15 16 17 18 19 20 21 22 23 24 25 26 27 28 29 30 31 32 33 34 35 36 37 38 39 40 41 42 43 44 45 46 47 48 49 50

316
ASUS45 KPSR 242110
RWRAZ

ARIZONA HOURLY REGIONAL WEATHER ROUNDUP
NATIONAL WEATHER SERVICE PHOENIX AZ
200 PM MST FRI MAR 24 2017

NOTE: FAIR INDICATES FEW OR NO CLOUDS BELOW 12,000 FEET WITH NO
SIGNIFICANT WEATHER AND/OR OBSTRUCTIONS TO VISIBILITY.

AZZ001>003-036-242200-
NORTHWEST ARIZONA

CITY           SKY/WX    TMP DP  RH WIND       PRES   REMARKS
BULLHEAD CITY  SUNNY     79  30  17 VRB6G13   30.13F
KINGMAN        SUNNY     68  13  12 S8        30.20F
$$

AZZ004>008-015-016-018-242200-
NORTH CENTRAL ARIZONA

CITY           SKY/WX    TMP DP  RH WIND       PRES   REMARKS
GRAND CANYON   SUNNY     54  30  40 S3G17     30.27F
WILLIAMS       SUNNY     54  21  28 VRB6G13   30.28F
PRESCOTT       SUNNY     61  20  20 N3        30.24F
FLAGSTAFF      SUNNY     53  19  26 W6        30.26F
PAYSON         SUNNY     59  32  36 W10G17    30.25F
PAGE           SUNNY     63  32  31 NE8       30.18F
$$

AZZ009>014-017-242200-
NORTHEAST ARIZONA

CITY           SKY/WX    TMP DP  RH WIND       PRES   REMARKS
WINSLOW        SUNNY     64  20  18 NW13      30.20F
SAINT JOHNS    SUNNY     61  25  25 NW16G22   30.19F
WINDOW ROCK    SUNNY     58  24  27 NW14G24   30.18F
SHOW LOW       SUNNY     54  21  28 N12G17    30.25F
$$

AZZ023-242200-
GREATER PHOENIX AREA

CITY           SKY/WX    TMP DP  RH WIND       PRES   REMARKS
PHOENIX        SUNNY     75  33  21 VRB6      30.14F
BUCKEYE        SUNNY     75  32  20 CALM      30.15F
GLENDALE       SUNNY     73  36  25 VRB6      30.17F
LUKE AFB       SUNNY     75  39  27 E3        30.14F
DEER VALLEY    SUNNY     73  33  23 W7        30.15F
SCOTTSDALE     SUNNY     73  31  21 NW7       30.16F
MESA-FALCON    SUNNY    N/A N/A N/A W10       30.13F
MESA-GATEWAY   SUNNY     72  34  25 N7        30.17F
CHANDLER       SUNNY     73  34  23 SW7       30.16F
$$

AZZ027-028-242200-
SOUTHWEST MARICOPA COUNTY AND PINAL COUNTY

CITY           SKY/WX    TMP DP  RH WIND       PRES   REMARKS
CASA GRANDE    NOT AVBL
GILA BEND      SUNNY     76  33  21 NW8       30.14F
$$

AZZ503-504-507>509-242200-
SOUTHEAST ARIZONA

CITY           SKY/WX    TMP DP  RH WIND       PRES   REMARKS
TUCSON         SUNNY     71  19  14 NW10      30.20F
DAVIS-MONTHAN  MOSUNNY   70  26  18 N10       30.19F
RYAN FIELD     SUNNY     72  25  17 NW12G21   30.20F
NOGALES        SUNNY     69  21  16 VRB6      30.20F
SIERRA VISTA   SUNNY     66  19  16 NW9G16    30.24S
DOUGLAS        SUNNY     68  21  16 VRB7G20   30.20F
SAFFORD        SUNNY     71  30  21 W21G28    30.12F
$$

AZZ020-021-025-026-031-242200-
SOUTHWEST ARIZONA

CITY           SKY/WX    TMP DP  RH WIND       PRES   REMARKS
YUMA           SUNNY     77  35  21 S5        30.13F
$$

CAZ031-033-041-043-047-048-061-242200-
SOUTHERN CALIFORNIA

CITY           SKY/WX    TMP DP  RH WIND       PRES   REMARKS
DOWNTOWN L.A.  SUNNY     69  45  41 VRB5      30.19F
L.A. AIRPORT   MOSUNNY   64  50  60 W14       30.21F
SAN DIEGO      SUNNY     67  48  50 NW8       30.20F
BURBANK        SUNNY     70  42  36 VRB3      30.18F
ONTARIO        MOSUNNY   69  38  32 SW9       30.18F
RIVERSIDE      SUNNY     70  39  32 VRB7      30.18F
PALM SPRINGS   SUNNY     80  29  15 VRB5      30.13F
EL CENTRO NAS  SUNNY     79  33  19 S9        30.13F
IMPERIAL       SUNNY     79  39  23 S8        30.12F
BLYTHE         SUNNY     79  36  21 VRB7      30.13F
NEEDLES        SUNNY     80  28  15 SE9       30.13F
$$

NVZ020-UTZ003-242200-
SOUTHERN NEVADA-UTAH

CITY           SKY/WX    TMP DP  RH WIND       PRES   REMARKS
LAS VEGAS      MOSUNNY   73  30  20 E10       30.12F
SALT LAKE CITY MOSUNNY   56  32  40 S13       30.14F
$$

NMZ009-TXZ055-242200-
NEW MEXICO-WEST TEXAS

CITY           SKY/WX    TMP DP  RH WIND       PRES   REMARKS
ALBUQUERQUE    MOSUNNY   65  22  19 N18G28    30.04F
EL PASO        MOSUNNY   70  22  16 W13       30.06F
$$


........................KEY........................
SKY/WX - SKY CONDITION/WEATHER
TMP    - TEMPERATURE IN FAHRENHEIT
DP     - DEW POINT IN FAHRENHEIT
RH     - RELATIVE HUMIDITY IN PERCENT
WIND   - DIRECTION AND SPEED IN MILES PER HOUR (MPH)
VRB    - VARIABLE WIND DIRECTION
PRES   - MEAN SEA LEVEL PRESSURE IN INCHES OF MERCURY
         F - FALLING PRESSURE   R - RISING PRESSURE
         S - STEADY PRESSURE
VSB    - VISIBILITY IN MILES
HX     - HEAT INDEX IN FAHRENHEIT
WCI    - WIND CHILL INDEX IN FAHRENHEIT
TC     - TEMPERATURE IN CELSIUS WHICH IS ALSO KNOWN AS
         TEMPERATURE IN CENTIGRADE
AFB    - AIR FORCE BASE
         LUKE AFB IS LUKE AIR FORCE BASE
         DAVIS-MONTHAN IS DAVIS-MONTHAN AIR FORCE BASE
NAS    - NAVAL AIR STATION
         EL CENTRO NAS IS EL CENTRO NAVAL AIR STATION
N/A    - NOT AVAILABLE





USA.gov is the U.S. government's official web portal to all federal, state and local government web resources and services.